QPF
0.04 0.04 0.05 0.07 0.08 0.05 0.04 0.05 0.04 0.04 0.04 0.05 0.04 0.06 0.09 0.11 0.14 0.12 0.08 0.04 0.05 0.04 0.03 0.03 0.04 0.04 0.05 0.05 0.04 0.04 0.04 0.03 0.03 0.03 0.02 0.02 0.02 0.02 0.02 0.02 0.02 0.02 0.02
0.02 0.04 0.04 0.05 0.06 0.05 0.03 0.03 0.04 0.04 0.04 0.08 0.08 0.06 0.10 0.12 0.17 0.12 0.08 0.04 0.04 0.04 0.03 0.03 0.04 0.06 0.07 0.06 0.05 0.04 0.04 0.04 0.03 0.03 0.03 0.03 0.03 0.02 0.01 0.01 0.02 0.03 0.03
0.02 0.03 0.03 0.03 0.04 0.05 0.05 0.04 0.05 0.07 0.06 0.05 0.08 0.07 0.09 0.08 0.11 0.10 0.08 0.06 0.05 0.08 0.05 0.04 0.06 0.07 0.09 0.08 0.08 0.07 0.06 0.06 0.06 0.05 0.04 0.04 0.03 0.02 0.02 0.02 0.03 0.03 0.03
0.03 0.03 0.03 0.03 0.03 0.06 0.08 0.07 0.05 0.06 0.06 0.04 0.06 0.08 0.15 0.11 0.09 0.08 0.12 0.10 0.07 0.06 0.06 0.06 0.06 0.10 0.11 0.10 0.09 0.07 0.07 0.06 0.06 0.05 0.05 0.04 0.04 0.03 0.03 0.02 0.02 0.02 0.02
0.04 0.04 0.03 0.03 0.04 0.06 0.09 0.07 0.05 0.04 0.04 0.05 0.06 0.06 0.09 0.11 0.10 0.08 0.10 0.10 0.11 0.12 0.11 0.07 0.07 0.10 0.08 0.08 0.09 0.07 0.07 0.07 0.06 0.06 0.05 0.04 0.04 0.03 0.03 0.02 0.02 0.02 0.03
0.03 0.04 0.03 0.03 0.03 0.03 0.04 0.05 0.05 0.05 0.04 0.04 0.04 0.03 0.05 0.08 0.09 0.07 0.06 0.08 0.13 0.15 0.15 0.10 0.08 0.07 0.08 0.11 0.09 0.07 0.07 0.06 0.05 0.05 0.05 0.05 0.05 0.05 0.04 0.03 0.03 0.03 0.03
0.02 0.03 0.02 0.02 0.02 0.02 0.03 0.04 0.06 0.07 0.05 0.04 0.05 0.04 0.05 0.10 0.14 0.11 0.08 0.08 0.11 0.12 0.13 0.13 0.13 0.11 0.09 0.09 0.07 0.08 0.08 0.06 0.05 0.04 0.04 0.05 0.05 0.05 0.04 0.04 0.03 0.04 0.04
0.03 0.03 0.03 0.02 0.02 0.02 0.02 0.03 0.05 0.08 0.09 0.08 0.07 0.06 0.07 0.09 0.09 0.08 0.08 0.09 0.10 0.10 0.10 0.08 0.10 0.12 0.12 0.07 0.05 0.05 0.05 0.04 0.04 0.04 0.05 0.05 0.06 0.06 0.05 0.04 0.04 0.03 0.04
0.04 0.04 0.06 0.05 0.04 0.03 0.05 0.04 0.05 0.05 0.08 0.11 0.11 0.09 0.08 0.07 0.07 0.08 0.07 0.09 0.11 0.14 0.15 0.15 0.10 0.09 0.09 0.09 0.08 0.05 0.04 0.05 0.04 0.04 0.04 0.05 0.05 0.06 0.05 0.04 0.04 0.03 0.03
0.05 0.05 0.07 0.05 0.04 0.05 0.07 0.05 0.05 0.05 0.05 0.08 0.12 0.09 0.08 0.07 0.05 0.06 0.06 0.08 0.09 0.11 0.15 0.11 0.10 0.12 0.12 0.10 0.09 0.08 0.06 0.06 0.05 0.05 0.04 0.04 0.04 0.04 0.04 0.04 0.05 0.05 0.05
0.02 0.03 0.05 0.05 0.04 0.04 0.04 0.04 0.04 0.03 0.03 0.05 0.07 0.08 0.08 0.08 0.04 0.03 0.05 0.06 0.08 0.08 0.08 0.08 0.16 0.17 0.14 0.13 0.12 0.10 0.07 0.06 0.05 0.05 0.05 0.05 0.05 0.05 0.05 0.06 0.06 0.06 0.06
0.03 0.02 0.02 0.03 0.04 0.03 0.02 0.03 0.03 0.02 0.02 0.04 0.05 0.06 0.07 0.07 0.04 0.02 0.02 0.03 0.06 0.07 0.07 0.08 0.11 0.16 0.15 0.12 0.12 0.12 0.10 0.10 0.07 0.06 0.05 0.06 0.07 0.08 0.09 0.09 0.10 0.09 0.07
0.04 0.03 0.03 0.04 0.04 0.05 0.06 0.07 0.09 0.08 0.05 0.05 0.06 0.05 0.05 0.05 0.06 0.05 0.03 0.03 0.05 0.08 0.07 0.07 0.09 0.11 0.13 0.15 0.16 0.14 0.11 0.09 0.10 0.09 0.07 0.05 0.08 0.10 0.11 0.11 0.11 0.10 0.09
0.03 0.03 0.03 0.03 0.02 0.02 0.03 0.05 0.05 0.05 0.05 0.04 0.04 0.05 0.04 0.03 0.04 0.04 0.03 0.03 0.04 0.08 0.09 0.07 0.08 0.08 0.09 0.12 0.12 0.12 0.08 0.07 0.07 0.08 0.07 0.06 0.05 0.06 0.06 0.06 0.05 0.06 0.07
0.02 0.03 0.03 0.02 0.02 0.02 0.01 0.02 0.02 0.01 0.02 0.02 0.02 0.03 0.04 0.05 0.04 0.04 0.03 0.03 0.04 0.06 0.09 0.09 0.06 0.10 0.11 0.13 0.12 0.10 0.08 0.07 0.06 0.07 0.06 0.06 0.04 0.03 0.03 0.04 0.03 0.04 0.04
0.03 0.02 0.01 0.01 0.02 0.02 0.02 0.02 0.01 0.01 0.01 0.01 0.01 0.01 0.02 0.03 0.06 0.06 0.04 0.03 0.03 0.04 0.06 0.06 0.05 0.06 0.06 0.09 0.11 0.11 0.10 0.11 0.11 0.09 0.07 0.05 0.03 0.03 0.03 0.03 0.02 0.02 0.03
0.02 0.02 0.02 0.02 0.03 0.03 0.04 0.04 0.03 0.02 0.01 0.01 0.01 0.01 0.02 0.02 0.02 0.04 0.05 0.04 0.04 0.04 0.05 0.06 0.05 0.05 0.08 0.10 0.08 0.08 0.06 0.07 0.09 0.11 0.09 0.05 0.04 0.03 0.03 0.03 0.03 0.02 0.02
0.01 0.02 0.02 0.02 0.03 0.03 0.04 0.04 0.03 0.02 0.03 0.02 0.01 0.01 0.02 0.03 0.03 0.03 0.05 0.06 0.06 0.06 0.06 0.06 0.06 0.04 0.05 0.04 0.05 0.07 0.08 0.09 0.14 0.15 0.11 0.06 0.05 0.05 0.05 0.03 0.03 0.03 0.02
0.02 0.02 0.02 0.02 0.02 0.03 0.02 0.02 0.02 0.02 0.03 0.02 0.02 0.02 0.02 0.03 0.03 0.03 0.05 0.06 0.07 0.08 0.08 0.07 0.06 0.04 0.03 0.03 0.02 0.02 0.04 0.07 0.10 0.12 0.10 0.07 0.06 0.06 0.05 0.03 0.02 0.02 0.03
0.03 0.03 0.03 0.01 0.01 0.02 0.03 0.03 0.03 0.03 0.03 0.02 0.02 0.02 0.02 0.01 0.01 0.02 0.03 0.04 0.05 0.07 0.09 0.08 0.07 0.05 0.04 0.04 0.03 0.03 0.02 0.03 0.06 0.10 0.11 0.08 0.05 0.04 0.04 0.03 0.03 0.03 0.03
0.03 0.03 0.02 0.02 0.01 0.02 0.02 0.03 0.05 0.05 0.04 0.03 0.03 0.03 0.02 0.02 0.03 0.04 0.04 0.03 0.04 0.05 0.07 0.07 0.07 0.06 0.05 0.03 0.04 0.04 0.03 0.03 0.05 0.06 0.07 0.06 0.05 0.04 0.03 0.03 0.02 0.02 0.03
0.02 0.01 0.02 0.03 0.02 0.02 0.03 0.05 0.07 0.04 0.04 0.04 0.03 0.03 0.04 0.05 0.04 0.04 0.05 0.05 0.05 0.05 0.04 0.04 0.04 0.04 0.04 0.03 0.05 0.05 0.04 0.04 0.04 0.04 0.05 0.04 0.05 0.05 0.03 0.02 0.03 0.03 0.03
0.02 0.02 0.02 0.03 0.02 0.02 0.03 0.05 0.05 0.05 0.06 0.04 0.04 0.04 0.05 0.05 0.05 0.04 0.05 0.05 0.04 0.04 0.03 0.02 0.02 0.02 0.03 0.03 0.04 0.04 0.03 0.04 0.04 0.04 0.05 0.05 0.04 0.04 0.03 0.03 0.03 0.05 0.04
0.03 0.02 0.02 0.02 0.02 0.02 0.04 0.04 0.03 0.04 0.05 0.05 0.05 0.06 0.06 0.05 0.04 0.04 0.04 0.04 0.02 0.02 0.01 0.01 0.01 0.02 0.02 0.02 0.02 0.03 0.04 0.03 0.03 0.04 0.04 0.04 0.04 0.03 0.03 0.04 0.05 0.06 0.05
0.03 0.02 0.02 0.03 0.03 0.03 0.04 0.04 0.05 0.05 0.05 0.05 0.05 0.05 0.04 0.03 0.02 0.03 0.02 0.01 0.01 0.00 0.01 0.01 0.01 0.01 0.02 0.02 0.03 0.03 0.04 0.04 0.04 0.05 0.04 0.04 0.03 0.03 0.03 0.04 0.05 0.06 0.05
0.04 0.03 0.04 0.05 0.05 0.04 0.05 0.06 0.07 0.06 0.07 0.06 0.04 0.03 0.02 0.02 0.02 0.01 0.01 0.00 0.00 0.00 0.00 0.01 0.01 0.01 0.02 0.02 0.03 0.03 0.04 0.04 0.04 0.05 0.06 0.04 0.03 0.03 0.04 0.04 0.04 0.04 0.04
MSLP
1014.24 1014.21 1014.11 1013.95 1013.78 1013.60 1013.47 1013.37 1013.31 1013.26 1013.21 1013.13 1012.99 1012.81 1012.58 1012.33 1012.10 1011.92 1011.79 1011.75 1011.78 1011.87 1011.99 1012.14 1012.28 1012.40 1012.51 1012.61 1012.71 1012.84 1012.99 1013.18 1013.42 1013.70 1014.00 1014.33 1014.67 1015.01 1015.34 1015.66 1015.98 1016.29 1016.60
1013.86 1013.84 1013.77 1013.66 1013.53 1013.41 1013.30 1013.23 1013.17 1013.13 1013.08 1012.99 1012.85 1012.65 1012.41 1012.14 1011.88 1011.66 1011.50 1011.43 1011.44 1011.53 1011.68 1011.86 1012.04 1012.20 1012.33 1012.44 1012.53 1012.61 1012.72 1012.85 1013.03 1013.27 1013.55 1013.88 1014.23 1014.59 1014.95 1015.29 1015.63 1015.95 1016.28
1013.47 1013.49 1013.48 1013.44 1013.39 1013.33 1013.27 1013.22 1013.18 1013.13 1013.06 1012.96 1012.80 1012.59 1012.33 1012.04 1011.74 1011.48 1011.28 1011.16 1011.13 1011.19 1011.33 1011.51 1011.71 1011.90 1012.06 1012.17 1012.26 1012.32 1012.39 1012.48 1012.62 1012.82 1013.08 1013.39 1013.75 1014.13 1014.52 1014.90 1015.27 1015.62 1015.96
1013.09 1013.16 1013.23 1013.28 1013.32 1013.34 1013.33 1013.31 1013.27 1013.20 1013.11 1012.98 1012.81 1012.58 1012.31 1012.01 1011.69 1011.39 1011.14 1010.96 1010.88 1010.88 1010.97 1011.13 1011.32 1011.52 1011.69 1011.82 1011.91 1011.97 1012.02 1012.08 1012.19 1012.35 1012.58 1012.89 1013.25 1013.65 1014.06 1014.48 1014.88 1015.26 1015.62
1012.71 1012.84 1012.99 1013.14 1013.28 1013.37 1013.42 1013.42 1013.38 1013.30 1013.18 1013.03 1012.84 1012.61 1012.35 1012.05 1011.73 1011.40 1011.11 1010.87 1010.71 1010.65 1010.67 1010.77 1010.92 1011.10 1011.27 1011.41 1011.52 1011.58 1011.63 1011.68 1011.76 1011.90 1012.11 1012.39 1012.74 1013.14 1013.57 1014.01 1014.44 1014.85 1015.23
1012.31 1012.50 1012.73 1012.98 1013.21 1013.38 1013.48 1013.50 1013.45 1013.35 1013.21 1013.05 1012.86 1012.65 1012.42 1012.15 1011.85 1011.53 1011.21 1010.92 1010.69 1010.53 1010.47 1010.49 1010.58 1010.72 1010.87 1011.01 1011.13 1011.21 1011.27 1011.32 1011.39 1011.51 1011.69 1011.94 1012.26 1012.64 1013.06 1013.50 1013.93 1014.36 1014.76
1011.89 1012.12 1012.42 1012.75 1013.06 1013.29 1013.44 1013.48 1013.44 1013.33 1013.19 1013.03 1012.87 1012.70 1012.52 1012.31 1012.06 1011.76 1011.44 1011.12 1010.82 1010.58 1010.41 1010.34 1010.34 1010.42 1010.54 1010.67 1010.79 1010.89 1010.97 1011.03 1011.10 1011.20 1011.34 1011.56 1011.83 1012.17 1012.55 1012.96 1013.37 1013.79 1014.19
1011.45 1011.70 1012.05 1012.44 1012.81 1013.10 1013.29 1013.36 1013.34 1013.24 1013.11 1012.99 1012.87 1012.77 1012.66 1012.53 1012.34 1012.10 1011.80 1011.46 1011.11 1010.78 1010.52 1010.34 1010.25 1010.25 1010.32 1010.43 1010.55 1010.66 1010.75 1010.83 1010.90 1010.98 1011.10 1011.26 1011.47 1011.74 1012.05 1012.40 1012.77 1013.15 1013.53
1011.01 1011.26 1011.62 1012.05 1012.46 1012.80 1013.04 1013.15 1013.16 1013.11 1013.02 1012.94 1012.88 1012.85 1012.83 1012.79 1012.68 1012.50 1012.23 1011.89 1011.50 1011.11 1010.75 1010.47 1010.29 1010.21 1010.22 1010.29 1010.39 1010.51 1010.61 1010.70 1010.78 1010.85 1010.93 1011.04 1011.19 1011.37 1011.60 1011.86 1012.15 1012.47 1012.80
1010.58 1010.81 1011.18 1011.61 1012.05 1012.44 1012.72 1012.89 1012.96 1012.96 1012.92 1012.90 1012.92 1012.96 1013.02 1013.05 1013.02 1012.90 1012.67 1012.33 1011.92 1011.48 1011.06 1010.69 1010.42 1010.26 1010.20 1010.22 1010.30 1010.41 1010.52 1010.61 1010.69 1010.75 1010.81 1010.88 1010.96 1011.06 1011.20 1011.37 1011.57 1011.80 1012.06
1010.19 1010.39 1010.74 1011.17 1011.63 1012.05 1012.39 1012.62 1012.75 1012.81 1012.84 1012.89 1012.96 1013.06 1013.18 1013.27 1013.29 1013.22 1013.02 1012.70 1012.28 1011.82 1011.34 1010.92 1010.57 1010.34 1010.21 1010.18 1010.22 1010.31 1010.41 1010.51 1010.59 1010.65 1010.69 1010.73 1010.76 1010.80 1010.86 1010.94 1011.04 1011.19 1011.37
1009.85 1010.01 1010.33 1010.75 1011.21 1011.66 1012.05 1012.34 1012.54 1012.67 1012.76 1012.85 1012.96 1013.10 1013.24 1013.36 1013.42 1013.37 1013.20 1012.91 1012.51 1012.04 1011.55 1011.09 1010.69 1010.40 1010.21 1010.12 1010.12 1010.17 1010.25 1010.34 1010.43 1010.49 1010.53 1010.55 1010.56 1010.56 1010.57 1010.58 1010.61 1010.68 1010.78
1009.54 1009.67 1009.95 1010.35 1010.81 1011.28 1011.70 1012.04 1012.31 1012.49 1012.63 1012.76 1012.88 1013.02 1013.17 1013.28 1013.34 1013.31 1013.16 1012.90 1012.53 1012.09 1011.62 1011.15 1010.74 1010.41 1010.17 1010.03 1009.97 1009.97 1010.02 1010.09 1010.17 1010.24 1010.29 1010.32 1010.34 1010.33 1010.32 1010.30 1010.29 1010.30 1010.34
1009.24 1009.34 1009.59 1009.95 1010.40 1010.87 1011.32 1011.70 1012.01 1012.24 1012.41 1012.54 1012.66 1012.78 1012.90 1012.99 1013.04 1013.01 1012.89 1012.67 1012.36 1011.97 1011.54 1011.10 1010.70 1010.35 1010.08 1009.89 1009.77 1009.72 1009.72 1009.76 1009.82 1009.89 1009.96 1010.02 1010.06 1010.09 1010.09 1010.08 1010.06 1010.05 1010.06
1008.93 1009.00 1009.21 1009.54 1009.95 1010.41 1010.87 1011.28 1011.61 1011.86 1012.04 1012.17 1012.27 1012.36 1012.43 1012.49 1012.52 1012.50 1012.41 1012.24 1012.00 1011.69 1011.34 1010.97 1010.60 1010.26 1009.96 1009.72 1009.55 1009.44 1009.38 1009.38 1009.41 1009.48 1009.56 1009.66 1009.74 1009.82 1009.87 1009.90 1009.91 1009.91 1009.91
1008.58 1008.63 1008.79 1009.08 1009.45 1009.89 1010.33 1010.74 1011.08 1011.34 1011.52 1011.64 1011.71 1011.76 1011.80 1011.83 1011.85 1011.84 1011.79 1011.69 1011.53 1011.32 1011.06 1010.77 1010.46 1010.14 1009.84 1009.57 1009.34 1009.16 1009.05 1008.98 1008.98 1009.03 1009.12 1009.24 1009.38 1009.51 1009.62 1009.71 1009.78 1009.82 1009.86
1008.21 1008.22 1008.34 1008.57 1008.90 1009.30 1009.71 1010.10 1010.44 1010.69 1010.87 1010.97 1011.03 1011.05 1011.07 1011.08 1011.10 1011.11 1011.12 1011.09 1011.03 1010.92 1010.76 1010.56 1010.31 1010.03 1009.74 1009.44 1009.17 1008.93 1008.74 1008.62 1008.57 1008.58 1008.67 1008.80 1008.96 1009.14 1009.31 1009.47 1009.61 1009.71 1009.80
1007.83 1007.81 1007.88 1008.06 1008.34 1008.68 1009.06 1009.42 1009.74 1009.99 1010.16 1010.26 1010.31 1010.33 1010.34 1010.36 1010.39 1010.43 1010.49 1010.53 1010.55 1010.54 1010.47 1010.34 1010.16 1009.92 1009.64 1009.33 1009.02 1008.74 1008.49 1008.30 1008.19 1008.16 1008.21 1008.33 1008.50 1008.70 1008.92 1009.13 1009.33 1009.51 1009.66
1007.51 1007.46 1007.49 1007.62 1007.84 1008.13 1008.46 1008.80 1009.09 1009.33 1009.50 1009.60 1009.66 1009.69 1009.71 1009.74 1009.79 1009.87 1009.97 1010.06 1010.15 1010.20 1010.20 1010.13 1009.99 1009.79 1009.53 1009.22 1008.89 1008.56 1008.26 1008.02 1007.85 1007.76 1007.76 1007.84 1007.99 1008.18 1008.41 1008.66 1008.90 1009.14 1009.36
1007.32 1007.24 1007.23 1007.31 1007.49 1007.74 1008.02 1008.32 1008.59 1008.81 1008.98 1009.10 1009.17 1009.22 1009.26 1009.31 1009.38 1009.48 1009.59 1009.72 1009.82 1009.90 1009.93 1009.90 1009.79 1009.61 1009.35 1009.05 1008.71 1008.36 1008.04 1007.75 1007.52 1007.38 1007.31 1007.33 1007.42 1007.58 1007.78 1008.03 1008.29 1008.57 1008.86
1007.32 1007.22 1007.19 1007.24 1007.38 1007.59 1007.83 1008.09 1008.33 1008.54 1008.70 1008.82 1008.90 1008.97 1009.02 1009.09 1009.17 1009.27 1009.38 1009.49 1009.58 1009.65 1009.67 1009.63 1009.52 1009.34 1009.10 1008.80 1008.46 1008.11 1007.77 1007.45 1007.18 1006.98 1006.84 1006.78 1006.80 1006.89 1007.04 1007.25 1007.51 1007.81 1008.15
1007.56 1007.45 1007.42 1007.46 1007.57 1007.74 1007.95 1008.16 1008.36 1008.54 1008.69 1008.80 1008.89 1008.96 1009.02 1009.08 1009.15 1009.22 1009.30 1009.36 1009.41 1009.42 1009.39 1009.31 1009.18 1008.99 1008.74 1008.45 1008.13 1007.79 1007.44 1007.11 1006.81 1006.55 1006.34 1006.20 1006.13 1006.13 1006.20 1006.35 1006.58 1006.89 1007.25
1008.04 1007.96 1007.93 1007.98 1008.08 1008.22 1008.38 1008.54 1008.70 1008.84 1008.95 1009.04 1009.11 1009.16 1009.21 1009.25 1009.29 1009.31 1009.33 1009.32 1009.29 1009.22 1009.12 1008.98 1008.80 1008.58 1008.32 1008.04 1007.73 1007.40 1007.06 1006.72 1006.40 1006.09 1005.82 1005.59 1005.42 1005.33 1005.31 1005.39 1005.57 1005.85 1006.22
1008.75 1008.70 1008.70 1008.76 1008.85 1008.96 1009.08 1009.19 1009.29 1009.37 1009.43 1009.48 1009.51 1009.53 1009.55 1009.55 1009.54 1009.50 1009.44 1009.35 1009.23 1009.07 1008.89 1008.67 1008.44 1008.18 1007.90 1007.61 1007.31 1006.99 1006.66 1006.32 1005.97 1005.63 1005.29 1004.99 1004.73 1004.53 1004.42 1004.41 1004.53 1004.77 1005.13
1009.61 1009.61 1009.65 1009.72 1009.80 1009.89 1009.96 1010.01 1010.04 1010.05 1010.04 1010.03 1010.01 1009.99 1009.96 1009.91 1009.85 1009.75 1009.62 1009.45 1009.25 1009.01 1008.74 1008.46 1008.16 1007.86 1007.56 1007.26 1006.95 1006.63 1006.30 1005.95 1005.58 1005.19 1004.80 1004.41 1004.07 1003.78 1003.57 1003.48 1003.52 1003.71 1004.04
1010.53 1010.57 1010.65 1010.73 1010.81 1010.86 1010.88 1010.86 1010.82 1010.76 1010.68 1010.61 1010.53 1010.46 1010.38 1010.29 1010.18 1010.04 1009.85 1009.62 1009.35 1009.05 1008.72 1008.38 1008.04 1007.70 1007.37 1007.04 1006.72 1006.38 1006.03 1005.65 1005.24 1004.81 1004.36 1003.91 1003.48 1003.10 1002.81 1002.63 1002.59 1002.72 1003.00
Thickness
5774 5773 5772 5771 5770 5769 5768 5767 5766 5765 5766 5766 5766 5766 5765 5763 5762 5761 5761 5760 5759 5757 5757 5755 5754 5752 5750 5748 5747 5746 5744 5742 5740 5739 5738 5737 5735 5734 5733 5731 5730 5729 5728
5776 5774 5773 5772 5772 5771 5770 5769 5767 5767 5767 5767 5766 5766 5766 5765 5763 5763 5762 5761 5760 5758 5757 5756 5755 5753 5751 5749 5748 5746 5745 5743 5741 5739 5738 5737 5735 5734 5733 5732 5730 5729 5727
5777 5775 5774 5773 5773 5772 5771 5769 5768 5768 5767 5767 5766 5767 5766 5766 5765 5764 5763 5761 5760 5759 5758 5757 5755 5754 5752 5750 5749 5747 5745 5743 5741 5740 5738 5737 5736 5734 5733 5732 5730 5729 5727
5777 5776 5774 5774 5774 5773 5771 5769 5768 5766 5766 5765 5765 5766 5766 5766 5765 5764 5763 5761 5760 5759 5758 5757 5755 5754 5753 5751 5750 5748 5746 5744 5742 5740 5738 5737 5736 5734 5733 5731 5730 5728 5727
5778 5776 5775 5774 5774 5772 5771 5770 5768 5766 5763 5763 5764 5765 5765 5764 5763 5764 5762 5761 5759 5759 5759 5757 5756 5754 5753 5752 5750 5748 5746 5744 5742 5741 5739 5737 5736 5734 5733 5731 5730 5728 5726
5778 5776 5774 5773 5773 5771 5769 5768 5766 5765 5763 5762 5763 5763 5763 5763 5763 5762 5761 5761 5759 5758 5757 5757 5755 5754 5753 5752 5750 5748 5746 5745 5743 5741 5739 5738 5736 5734 5733 5731 5729 5728 5726
5778 5776 5774 5772 5771 5769 5768 5767 5765 5763 5761 5761 5758 5755 5758 5760 5760 5760 5759 5759 5759 5758 5756 5755 5753 5752 5752 5751 5750 5748 5746 5745 5743 5741 5739 5737 5736 5734 5732 5730 5729 5727 5725
5778 5775 5773 5771 5770 5768 5767 5765 5764 5760 5759 5760 5755 5749 5745 5747 5753 5758 5758 5758 5757 5756 5754 5753 5752 5751 5750 5749 5748 5747 5746 5744 5742 5740 5738 5736 5735 5733 5731 5729 5728 5726 5724
5777 5775 5772 5770 5769 5767 5765 5764 5763 5759 5755 5756 5756 5750 5741 5737 5743 5749 5753 5754 5754 5752 5752 5751 5751 5749 5749 5748 5746 5745 5744 5743 5741 5739 5737 5735 5734 5732 5730 5728 5726 5724 5723
5775 5773 5772 5770 5768 5766 5764 5763 5762 5760 5756 5752 5753 5753 5750 5747 5740 5738 5744 5748 5749 5749 5749 5749 5749 5747 5746 5745 5744 5743 5741 5740 5739 5737 5736 5734 5732 5730 5728 5726 5724 5723 5721
5774 5772 5771 5769 5767 5765 5764 5762 5761 5758 5755 5752 5750 5748 5747 5746 5744 5737 5734 5738 5742 5745 5746 5746 5746 5744 5743 5741 5741 5740 5739 5738 5737 5735 5734 5732 5730 5728 5726 5724 5722 5720 5718
5771 5771 5769 5767 5765 5763 5762 5760 5759 5757 5754 5752 5750 5748 5745 5742 5739 5737 5733 5733 5734 5738 5742 5743 5742 5741 5740 5739 5738 5738 5735 5734 5733 5732 5731 5730 5728 5726 5724 5722 5720 5718 5716
5767 5767 5767 5765 5763 5762 5760 5758 5756 5754 5752 5750 5748 5747 5746 5744 5743 5739 5735 5731 5730 5733 5735 5737 5739 5738 5737 5736 5735 5734 5732 5731 5730 5728 5726 5725 5724 5723 5721 5719 5717 5715 5713
5767 5767 5765 5763 5762 5760 5758 5755 5753 5751 5750 5748 5747 5746 5744 5743 5742 5740 5736 5730 5725 5724 5727 5729 5733 5733 5732 5731 5731 5730 5730 5728 5727 5724 5722 5720 5718 5717 5716 5715 5713 5712 5710
5767 5765 5763 5761 5759 5757 5754 5752 5749 5747 5747 5745 5744 5743 5742 5741 5740 5739 5737 5733 5724 5717 5718 5723 5725 5728 5728 5727 5727 5727 5726 5725 5723 5721 5718 5716 5714 5712 5711 5710 5709 5707 5706
5765 5762 5760 5758 5756 5753 5751 5748 5745 5744 5742 5741 5740 5739 5738 5737 5736 5735 5733 5731 5727 5721 5715 5718 5720 5722 5722 5723 5722 5721 5722 5721 5719 5717 5714 5711 5710 5708 5707 5705 5704 5702 5701
5761 5759 5757 5754 5751 5748 5746 5743 5741 5740 5738 5736 5735 5734 5732 5732 5730 5729 5728 5726 5723 5719 5713 5714 5715 5716 5716 5715 5715 5716 5715 5715 5713 5711 5708 5707 5705 5703 5702 5701 5699 5698 5697
5758 5755 5753 5751 5748 5746 5743 5741 5738 5736 5733 5731 5729 5728 5726 5726 5724 5723 5721 5719 5717 5715 5711 5707 5707 5708 5708 5709 5708 5708 5708 5708 5707 5705 5703 5702 5700 5699 5697 5696 5694 5693 5691
5753 5751 5749 5746 5743 5742 5739 5737 5735 5732 5729 5727 5725 5722 5721 5719 5717 5716 5714 5712 5710 5710 5706 5702 5700 5701 5701 5701 5700 5700 5700 5699 5700 5699 5697 5696 5694 5693 5692 5690 5688 5687 5686
5750 5747 5745 5742 5740 5738 5736 5733 5731 5728 5726 5723 5721 5718 5716 5714 5711 5709 5708 5705 5703 5700 5698 5695 5693 5692 5692 5692 5691 5689 5689 5690 5691 5691 5690 5689 5688 5687 5686 5684 5682 5681 5680
5748 5745 5741 5739 5737 5734 5733 5729 5726 5724 5720 5717 5715 5713 5711 5710 5708 5705 5702 5699 5696 5692 5689 5687 5684 5683 5682 5682 5681 5681 5680 5680 5682 5683 5682 5681 5681 5680 5679 5678 5676 5675 5674
5742 5739 5737 5734 5731 5731 5729 5726 5722 5718 5714 5711 5708 5706 5705 5703 5701 5699 5697 5694 5691 5686 5682 5679 5677 5675 5675 5675 5674 5673 5671 5670 5670 5674 5673 5673 5674 5672 5672 5671 5670 5669 5668
5736 5733 5731 5728 5725 5724 5722 5720 5716 5712 5708 5705 5702 5700 5698 5696 5693 5691 5689 5686 5684 5682 5680 5676 5672 5670 5669 5668 5667 5665 5664 5662 5662 5665 5664 5664 5665 5664 5665 5665 5664 5663 5662
5730 5727 5724 5722 5719 5717 5716 5713 5710 5706 5702 5698 5695 5693 5689 5687 5685 5682 5679 5676 5674 5673 5672 5670 5668 5666 5665 5664 5662 5660 5658 5656 5657 5658 5657 5654 5656 5656 5658 5657 5656 5655 5655
5724 5721 5718 5715 5712 5710 5708 5706 5703 5698 5693 5690 5688 5685 5682 5679 5677 5674 5670 5666 5664 5663 5664 5663 5661 5660 5659 5657 5656 5653 5649 5647 5646 5647 5649 5646 5646 5647 5647 5647 5647 5647 5647
5718 5714 5711 5709 5706 5703 5701 5698 5695 5690 5684 5681 5678 5676 5674 5671 5669 5665 5661 5658 5655 5654 5654 5654 5652 5651 5650 5649 5648 5645 5643 5639 5636 5636 5640 5639 5638 5637 5636 5638 5638 5638 5637